Flight Track Log - Related Links

Times and Time Zones

All times are in EDT time to prevent confusion due to time zone crossing. See the EGF3675 flight status page for this flight to view local times or setup timezone preferences in your user account.

Time Position Orientation Groundspeed Altitude Reporting Facility
EDT Latitude Longitude Course Direction KTS MPH feet Rate Location/Type
Mon 06:44:50 PM 33.9344 -118.4308 48° Northeast 148 170 1,900  Level Los Angeles Center
Mon 06:45:51 PM 33.9125 -118.5103 252° West 229 264 4,600 2,634 Climbing Los Angeles Center
Mon 06:46:00 PM 34.1149 -118.1027 51° Northeast  Level FlightAware Approximate
Mon 06:46:53 PM 33.8636 -118.5839 231° Southwest 280 322 7,300  Level Los Angeles Center
Mon 06:47:00 PM 34.1787 -117.9759 59° Northeast  Level FlightAware Approximate
Mon 06:47:55 PM 33.8117 -118.5272 138° Southeast 296 341 9,200  Level Los Angeles Center
Mon 06:48:00 PM 34.2502 -117.8660 68° East  Level FlightAware Approximate
Mon 06:48:57 PM 33.8583 -118.4533 53° Northeast 256 295 12,100  Level Los Angeles Center
Mon 06:49:00 PM 34.3081 -117.7401 55° Northeast  Level FlightAware Approximate
Mon 06:49:59 PM 33.9192 -118.4361 13° North 251 289 12,900  Level Los Angeles Center
Mon 06:50:00 PM 34.3783 -117.6179 48° Northeast  Level FlightAware Approximate
Mon 06:51:01 PM 33.9725 -118.3461 54° Northeast 357 411 15,000  Level Los Angeles Center
Mon 06:52:03 PM 34.0331 -118.2522 52° Northeast 358 412 16,800 1,941 Climbing Los Angeles Center
Mon 06:53:17 PM 34.1153 -118.1125 55° Northeast 362 417 19,400 1,809 Climbing Los Angeles Center
Mon 06:54:19 PM 34.1744 -118.0081 56° Northeast 372 428 20,900 1,659 Climbing Los Angeles Center
Mon 06:55:20 PM 34.2339 -117.9011 56° Northeast 379 436 22,800 1,707 Climbing Los Angeles Center
Mon 06:56:22 PM 34.2939 -117.7939 56° Northeast 383 441 24,400 1,161 Climbing Los Angeles Center
Mon 06:57:24 PM 34.3644 -117.6906 50° Northeast 393 452 25,200 919 Climbing Los Angeles Center
Mon 06:58:26 PM 34.4406 -117.5819 50° Northeast 399 459 26,300 823 Climbing Los Angeles Center
Mon 06:59:28 PM 34.5150 -117.4756 50° Northeast 412 474 26,900 774 Climbing Los Angeles Center
Mon 07:00:30 PM 34.5925 -117.3658 49° Northeast 427 491 27,900 1,024 Climbing Los Angeles Center
Mon 07:01:31 PM 34.6689 -117.2556 50° Northeast 430 495 29,000 1,073 Climbing Los Angeles Center
Mon 07:02:33 PM 34.7617 -117.1189 50° Northeast 438 504 30,100 1,016 Climbing Los Angeles Center
Mon 07:03:35 PM 34.8394 -117.0069 50° Northeast 436 502 31,100 823 Climbing Los Angeles Center
Mon 07:04:37 PM 34.9175 -116.8931 50° Northeast 439 505 31,800 677 Climbing Los Angeles Center
Mon 07:05:39 PM 34.9967 -116.7764 50° Northeast 446 513 32,500 677 Climbing Los Angeles Center
Mon 07:06:41 PM 35.0772 -116.6594 50° Northeast 452 520 33,200 732 Climbing Los Angeles Center
Mon 07:07:42 PM 35.1711 -116.5197 51° Northeast 447 514 34,000 732 Climbing Los Angeles Center
Mon 07:08:44 PM 35.2522 -116.4056 49° Northeast 445 512 34,700 532 Climbing Los Angeles Center
Mon 07:09:46 PM 35.3303 -116.2889 51° Northeast 446 513 35,100 532 Climbing Los Angeles Center
Mon 07:10:48 PM 35.4089 -116.1692 51° Northeast 450 518 35,800 585 Climbing Los Angeles Center
Mon 07:11:49 PM 35.4897 -116.0506 50° Northeast 454 522 36,300 488 Climbing Los Angeles Center
Mon 07:12:51 PM 35.5689 -115.9319 51° Northeast 452 520 36,800 339 Climbing Los Angeles Center
Mon 07:13:53 PM 35.6606 -115.7958 50° Northeast 451 519 37,000 97 Climbing Los Angeles Center
Mon 07:14:55 PM 35.7414 -115.6717 51° Northeast 463 533 37,000  Level Los Angeles Center
Mon 07:15:56 PM 35.8003 -115.5222 64° Northeast 488 562 37,000  Level Los Angeles Center
Mon 07:16:58 PM 35.8542 -115.3725 66° East 484 557 37,000  Level Los Angeles Center
Mon 07:18:00 PM 35.9225 -115.1939 65° Northeast 483 556 37,000  Level Los Angeles Center
Mon 07:19:02 PM 35.9789 -115.0439 65° Northeast 483 556 37,000  Level Los Angeles Center
Mon 07:20:03 PM 36.0372 -114.8922 65° Northeast 489 563 37,000  Level Los Angeles Center
Mon 07:21:05 PM 36.0944 -114.7403 65° Northeast 491 565 37,000  Level Los Angeles Center
Mon 07:22:07 PM 36.1506 -114.5878 65° Northeast 490 564 37,000  Level Los Angeles Center
Mon 07:23:09 PM 36.2069 -114.4353 65° Northeast 488 562 37,000  Level Los Angeles Center
Mon 07:24:10 PM 36.2744 -114.2517 65° Northeast 489 563 37,000  Level Los Angeles Center
Mon 07:25:12 PM 36.3297 -114.0978 66° East 490 564 37,000  Level Los Angeles Center
Mon 07:26:14 PM 36.3864 -113.9419 66° East 493 567 37,000  Level Los Angeles Center
Mon 07:27:15 PM 36.4428 -113.7850 66° East 497 572 37,000  Level Los Angeles Center
Mon 07:28:17 PM 36.4997 -113.6256 66° East 502 578 37,000  Level Los Angeles Center
Mon 07:29:19 PM 36.5539 -113.4700 67° East 499 574 37,000  Level Los Angeles Center
Mon 07:30:20 PM 36.6097 -113.3061 67° East 508 585 37,000  Level Los Angeles Center
Mon 07:31:22 PM 36.6794 -113.1139 66° East 509 586 37,000  Level Los Angeles Center
Mon 07:32:24 PM 36.7361 -112.9528 66° East 511 588 37,000  Level Los Angeles Center
Mon 07:33:25 PM 36.7928 -112.7928 66° East 510 587 37,000  Level Los Angeles Center
Mon 07:34:27 PM 36.8486 -112.6333 66° East 507 583 37,000  Level Los Angeles Center
Mon 07:35:29 PM 36.9053 -112.4733 66° East 506 582 37,000  Level Los Angeles Center
Mon 07:36:30 PM 36.9597 -112.3139 67° East 504 580 37,000  Level Los Angeles Center
Mon 07:37:32 PM 37.0264 -112.1206 67° East 507 583 37,000  Level Los Angeles Center
Mon 07:38:13 PM 37.0594 -112.0231 67° East 511 588 37,000  Level Denver Center
Mon 07:39:15 PM 37.1153 -111.8633 66° East 507 583 37,000  Level Denver Center
Mon 07:40:17 PM 37.1692 -111.7025 67° East 506 582 37,000  Level Denver Center
Mon 07:41:19 PM 37.2319 -111.5086 68° East 503 579 37,000  Level Denver Center
Mon 07:42:20 PM 37.2867 -111.3461 67° East 509 586 37,000  Level Denver Center
Mon 07:43:22 PM 37.3403 -111.1833 67° East 508 585 37,000  Level Denver Center
Mon 07:44:24 PM 37.3931 -111.0197 68° East 507 583 37,000  Level Denver Center
Mon 07:45:26 PM 37.4469 -110.8550 68° East 511 588 37,000  Level Denver Center
Mon 07:46:28 PM 37.5022 -110.6908 67° East 511 588 37,000  Level Denver Center
Mon 07:47:30 PM 37.5608 -110.5036 68° East 511 588 37,000  Level Denver Center
Mon 07:48:32 PM 37.6128 -110.3444 68° East 511 588 37,000  Level Denver Center
Mon 07:49:33 PM 37.6731 -110.1564 68° East 516 594 37,000  Level Denver Center
Mon 07:50:35 PM 37.7247 -109.9917 68° East 525 604 37,000  Level Denver Center
Mon 07:51:37 PM 37.7856 -109.7986 68° East 527 606 37,000  Level Denver Center
Mon 07:52:39 PM 37.8389 -109.6308 68° East 536 617 37,000  Level Denver Center
Mon 07:53:41 PM 37.8992 -109.4361 69° East 534 615 37,000  Level Denver Center
Mon 07:54:43 PM 37.9511 -109.2692 68° East 532 612 37,000  Level Denver Center
Mon 07:55:45 PM 38.0031 -109.1025 68° East 532 612 37,000  Level Denver Center
Mon 07:56:46 PM 38.0631 -108.9000 69° East 540 621 37,000  Level Denver Center
Mon 07:57:48 PM 38.1136 -108.7322 69° East 537 618 37,000  Level Denver Center
Mon 07:58:50 PM 38.1728 -108.5383 69° East 530 610 37,000  Level Denver Center
Mon 07:59:52 PM 38.2239 -108.3683 69° East 535 616 37,000  Level Denver Center
Mon 08:00:54 PM 38.2819 -108.1728 69° East 533 613 37,000  Level Denver Center
Mon 08:01:56 PM 38.3311 -108.0047 70° East 532 612 37,000  Level Denver Center
Mon 08:02:58 PM 38.3889 -107.8092 69° East 530 610 37,000  Level Denver Center
Mon 08:04:00 PM 38.4406 -107.6381 69° East 538 619 37,000  Level Denver Center
Mon 08:05:02 PM 38.5236 -107.4553 60° Northeast 536 617 37,000  Level Denver Center
Mon 08:06:04 PM 38.5939 -107.3033 59° Northeast 523 602 37,000  Level Denver Center
Mon 08:07:06 PM 38.6581 -107.1597 60° Northeast 517 595 37,000  Level Denver Center
Mon 08:08:08 PM 38.7422 -106.9722 60° Northeast 511 588 37,000 -339 Level Denver Center
Mon 08:09:10 PM 38.8139 -106.8108 60° Northeast 521 600 36,300 -823 Descending Denver Center
Mon 08:10:12 PM 38.8903 -106.6403 60° Northeast 527 606 35,300 -1,016 Descending Denver Center
Mon 08:11:14 PM 38.9589 -106.4850 60° Northeast 525 604 34,200 -1,500 Descending Denver Center
Mon 08:12:16 PM 39.0369 -106.3069 61° Northeast 516 594 32,200 -1,935 Descending Denver Center
Mon 08:13:18 PM 39.1117 -106.1344 61° Northeast 507 583 30,200 -1,065 Descending Denver Center
Mon 08:14:20 PM 39.1753 -105.9881 61° Northeast 470 541 30,000 -624 Descending Denver Center
Mon 08:15:23 PM 39.2311 -105.8564 61° Northeast 418 481 28,900 -1,152 Descending Denver Center
Mon 08:16:25 PM 39.2858 -105.7319 60° Northeast 398 458 27,600 -1,258 Descending Denver Center
Mon 08:17:27 PM 39.3300 -105.6072 65° Northeast 385 443 26,300 -1,306 Descending Denver Center
Mon 08:18:29 PM 39.2836 -105.5083 121° Southeast 335 386 24,900 -1,113 Descending Denver Center
Mon 08:19:31 PM 39.2203 -105.5475 206° Southwest 281 323 24,000 -435 Descending Denver Center
Mon 08:20:33 PM 39.1797 -105.6447 242° Southwest 260 299 24,000  Level Denver Center
Mon 08:21:35 PM 39.1456 -105.7211 240° Southwest 273 314 24,000  Level Denver Center
Mon 08:22:37 PM 39.1050 -105.8164 241° Southwest 272 313 24,000  Level Denver Center
Mon 08:23:39 PM 39.1250 -105.9111 285° West 304 350 24,000  Level Denver Center
Mon 08:24:41 PM 39.2147 -105.8936 North 341 392 24,000  Level Denver Center
Mon 08:25:43 PM 39.2597 -105.7883 61° Northeast 336 387 24,000  Level Denver Center
Mon 08:26:45 PM 39.3067 -105.6803 61° Northeast 341 392 24,000  Level Denver Center
Mon 08:27:47 PM 39.3186 -105.5706 82° East 323 372 24,000  Level Denver Center
Mon 08:28:49 PM 39.2447 -105.5617 175° South 270 311 24,000  Level Denver Center
Mon 08:29:51 PM 39.2078 -105.6458 240° Southwest 267 307 24,000  Level Denver Center
Mon 08:30:53 PM 39.1731 -105.7317 242° Southwest 268 308 24,000  Level Denver Center
Mon 08:31:55 PM 39.1731 -105.8369 270° West 289 333 24,000 48 Level Denver Center
Mon 08:32:57 PM 39.1722 -105.9481 269° West 308 354 24,100 581 Climbing Denver Center
Mon 08:33:59 PM 39.1706 -106.0719 269° West 339 390 25,200 1,161 Climbing Denver Center
Mon 08:35:01 PM 39.1694 -106.2100 269° West 363 418 26,500 1,452 Climbing Denver Center
Mon 08:36:03 PM 39.1681 -106.3606 269° West 374 430 28,200 1,452 Climbing Denver Center
Mon 08:37:05 PM 39.1661 -106.4872 269° West 371 427 29,500 871 Climbing Denver Center
Mon 08:38:07 PM 39.1647 -106.6392 269° West 380 437 30,000 242 Climbing Denver Center
Mon 08:39:09 PM 39.1611 -106.7769 268° West 397 457 30,000  Level Denver Center
Mon 08:40:11 PM 39.1597 -106.9386 269° West 404 465 30,000  Level Denver Center
Mon 08:41:13 PM 39.1569 -107.0761 269° West 401 461 30,000  Level Denver Center
Mon 08:42:15 PM 39.1542 -107.2156 269° West 404 465 30,000 -290 Level Denver Center
Mon 08:43:17 PM 39.1508 -107.3756 269° West 401 461 29,400 -1,113 Descending Denver Center
Mon 08:44:19 PM 39.1483 -107.5117 269° West 399 459 27,700 -1,210 Descending Denver Center
Mon 08:45:21 PM 39.1450 -107.6664 268° West 386 444 26,900 -1,610 Descending Denver Center
Mon 08:46:22 PM 39.1422 -107.7997 269° West 388 447 24,400 -2,634 Descending Denver Center
Mon 08:47:24 PM 39.1375 -107.9522 268° West 382 440 21,500 -2,613 Descending Denver Center
Mon 08:48:26 PM 39.1347 -108.0803 268° West 374 430 19,000 -2,613 Descending Denver Center
Mon 08:49:28 PM 39.1375 -108.2217 271° West 371 427 16,100 -2,516 Descending Denver Center
Mon 08:50:30 PM 39.1514 -108.3578 278° West 359 413 13,800 -2,129 Descending Denver Center
Mon 08:51:32 PM 39.1772 -108.4706 286° West 321 369 11,700 -1,742 Descending Denver Center
Mon 08:52:34 PM 39.2169 -108.5675 298° West 285 328 10,200 -1,317 Descending Denver Center
Mon 08:53:35 PM 39.2592 -108.6486 304° West 275 316 9,000 -683 Descending Denver Center
Mon 08:54:37 PM 39.2672 -108.7253 278° West 235 270 8,800 -968 Descending Denver Center
Mon 08:55:39 PM 39.2156 -108.6933 154° Southeast 210 242 7,000 -1,065 Descending Denver Center
Mon 08:56:41 PM 39.1847 -108.6375 125° Southeast 193 222 6,600 -629 Descending Denver Center
Mon 08:57:43 PM 39.1581 -108.5881 125° Southeast 150 173 5,700 -780 Descending Denver Center
Mon 08:58:44 PM 39.1364 -108.5483 125° Southeast 136 157 5,000 -439 Descending Denver Center
Mon 08:59:46 PM 39.1236 -108.5247 125° Southeast 63 72 4,800 -194 Descending Denver Center

Login

Don't have an account? Register now (free) for customized features, flight alerts, and more!